,,,PA_Meas_PMT16A,,PR_Meas_QMR101_102,,RH_Meas_QMH101,,SR_Meas_QMS101,,TA_Meas_QMH101,,GenWind,,GenWind,
date,time,status,PA,status,PR,status,RH,status,SR,status,TA,status,DirAvg,status,SpdAvg,
2008-09-14, 00:00:04,VALID,1011.17,VALID,0,VALID,94.811,VALID,0,VALID,22.4277,VALID,13,VALID,0.239453,
2008-09-14, 00:01:04,VALID,1011.19,VALID,0,VALID,94.8568,VALID,0,VALID,22.4082,VALID,12,VALID,0.269531,
2008-09-14, 00:02:04,VALID,1011.19,VALID,0,VALID,94.8949,VALID,0,VALID,22.4472,VALID,12,VALID,0.387891,
2008-09-14, 00:03:04,VALID,1011.21,VALID,0,VALID,94.9025,VALID,0,VALID,22.4082,VALID,338,VALID,0.376953,
2008-09-14, 00:04:04,VALID,1011.21,VALID,0,VALID,94.9101,VALID,0,VALID,22.4277,VALID,344,VALID,0.297656,
2008-09-14, 00:05:04,VALID,1011.21,VALID,0,VALID,94.9101,VALID,0,VALID,22.387,VALID,14,VALID,0.434375,
2008-09-14, 00:06:04,VALID,1011.23,VALID,0,VALID,94.9178,VALID,0,VALID,22.387,VALID,68,VALID,0.558984,
2008-09-14, 00:07:04,VALID,1011.27,VALID,0,VALID,94.9254,VALID,0,VALID,22.387,VALID,82,VALID,0.705469,
2008-09-14, 00:08:04,VALID,1011.27,VALID,0,VALID,94.9711,VALID,0,VALID,22.4082,VALID,86,VALID,0.490625,
2008-09-14, 00:09:04,VALID,1011.29,VALID,0,VALID,94.9864,VALID,0,VALID,22.4277,VALID,74,VALID,0.56875,
2008-09-14, 00:10:04,VALID,1011.32,VALID,0,VALID,94.9864,VALID,0,VALID,22.4277,VALID,65,VALID,0.522656,
2008-09-14, 00:11:04,VALID,1011.29,VALID,0,VALID,94.9788,VALID,0,VALID,22.4277,VALID,64,VALID,0.657031,
2008-09-14, 00:12:04,VALID,1011.3,VALID,0,VALID,94.9711,VALID,0,VALID,22.4277,VALID,67,VALID,0.705078,
2008-09-14, 00:13:04,VALID,1011.3,VALID,0,VALID,94.9178,VALID,0,VALID,22.4065,VALID,64,VALID,0.816797,
2008-09-14, 00:14:04,VALID,1011.29,VALID,0,VALID,94.9025,VALID,0,VALID,22.387,VALID,65,VALID,0.842969,
2008-09-14, 00:15:04,VALID,1011.25,VALID,0,VALID,94.8796,VALID,0,VALID,22.4065,VALID,89,VALID,0.629687,
2008-09-14, 00:16:04,VALID,1011.21,VALID,0,VALID,94.8644,VALID,0,VALID,22.4082,VALID,78,VALID,0.316016,
2008-09-14, 00:17:04,VALID,1011.2,VALID,0,VALID,94.8644,VALID,0,VALID,22.3676,VALID,4,VALID,0.326953,
2008-09-14, 00:18:04,VALID,1011.2,VALID,0,VALID,94.8568,VALID,0,VALID,22.3693,VALID,323,VALID,0.479297,
2008-09-14, 00:19:04,VALID,1011.17,VALID,0,VALID,94.8568,VALID,0,VALID,22.3481,VALID,52,VALID,0.442969,
2008-09-14, 00:20:04,VALID,1011.16,VALID,0,VALID,94.8796,VALID,0,VALID,22.3693,VALID,42,VALID,0.385547,
2008-09-14, 00:21:04,VALID,1011.15,VALID,0,VALID,94.8873,VALID,0,VALID,22.3303,VALID,42,VALID,0.248437,
2008-09-14, 00:22:04,VALID,1011.1,VALID,0,VALID,94.8873,VALID,0,VALID,22.3498,VALID,42,VALID,0.207813,
2008-09-14, 00:23:04,VALID,1011.09,VALID,0,VALID,94.8949,VALID,0,VALID,22.3108,VALID,53,VALID,0.479297,
2008-09-14, 00:24:04,VALID,1011.09,VALID,0,VALID,94.9101,VALID,0,VALID,22.3108,VALID,53,VALID,0.247266,
2008-09-14, 00:25:04,VALID,1011.02,VALID,0,VALID,94.9406,VALID,0,VALID,22.3108,VALID,53,VALID,0.138672,
2008-09-14, 00:26:04,VALID,1011.02,VALID,0,VALID,94.9559,VALID,0,VALID,22.2897,VALID,53,VALID,0,
2008-09-14, 00:27:04,VALID,1010.99,VALID,0,VALID,94.933,VALID,0,VALID,22.2914,VALID,52,VALID,0.416406,
2008-09-14, 00:28:04,VALID,1010.99,VALID,0,VALID,94.9711,VALID,0,VALID,22.2719,VALID,52,VALID,0.440234,
2008-09-14, 00:29:04,VALID,1010.98,VALID,0,VALID,95.0093,VALID,0,VALID,22.2719,VALID,53,VALID,0.528516,
2008-09-14, 00:30:04,VALID,1010.99,VALID,0,VALID,95.0474,VALID,0,VALID,22.2719,VALID,62,VALID,0.549609,
2008-09-14, 00:31:04,VALID,1010.98,VALID,0,VALID,95.0779,VALID,0,VALID,22.2719,VALID,69,VALID,0.527344,
2008-09-14, 00:32:04,VALID,1010.97,VALID,0,VALID,95.0855,VALID,0,VALID,22.2914,VALID,56,VALID,0.4875,
2008-09-14, 00:33:04,VALID,1011,VALID,0,VALID,95.1084,VALID,0,VALID,22.2719,VALID,48,VALID,0.425781,
2008-09-14, 00:34:04,VALID,1010.98,VALID,0,VALID,95.1084,VALID,0,VALID,22.2719,VALID,1,VALID,0.449219,
2008-09-14, 00:35:04,VALID,1010.96,VALID,0,VALID,95.1236,VALID,0,VALID,22.2719,VALID,360,VALID,0.358594,
2008-09-14, 00:36:04,VALID,1010.97,VALID,0,VALID,95.1389,VALID,0,VALID,22.2312,VALID,350,VALID,0.349609,
2008-09-14, 00:37:04,VALID,1010.94,VALID,0,VALID,95.1618,VALID,0,VALID,22.2719,VALID,347,VALID,0.2125,
2008-09-14, 00:38:04,VALID,1010.92,VALID,0,VALID,95.1389,VALID,0,VALID,22.2134,VALID,313,VALID,0.466406,
2008-09-14, 00:39:04,VALID,1010.92,VALID,0,VALID,95.1542,VALID,0,VALID,22.2524,VALID,313,VALID,0.369141,
2008-09-14, 00:40:04,VALID,1010.89,VALID,0,VALID,95.1923,VALID,0,VALID,22.2312,VALID,314,VALID,0.358984,
2008-09-14, 00:41:04,VALID,1010.92,VALID,0,VALID,95.1847,VALID,0,VALID,22.2524,VALID,321,VALID,0.448047,
2008-09-14, 00:42:04,VALID,1010.9,VALID,0,VALID,95.1465,VALID,0,VALID,22.1923,VALID,321,VALID,0.495313,
2008-09-14, 00:43:04,VALID,1010.89,VALID,0,VALID,95.1465,VALID,0,VALID,22.2134,VALID,321,VALID,0.238672,
2008-09-14, 00:44:04,VALID,1010.88,VALID,0,VALID,95.177,VALID,0,VALID,22.2134,VALID,321,VALID,0.146094,
2008-09-14, 00:45:04,VALID,1010.86,VALID,0,VALID,95.177,VALID,0,VALID,22.194,VALID,321,VALID,0.0984375,
2008-09-14, 00:46:04,VALID,1010.85,VALID,0,VALID,95.2075,VALID,0,VALID,22.2134,VALID,321,VALID,0.0101562,
2008-09-14, 00:47:04,VALID,1010.83,VALID,0,VALID,95.2228,VALID,0,VALID,22.1533,VALID,321,VALID,0.212109,
2008-09-14, 00:48:04,VALID,1010.78,VALID,0,VALID,95.2533,VALID,0,VALID,22.194,VALID,347,VALID,0.391406,
2008-09-14, 00:49:04,VALID,1010.78,VALID,0,VALID,95.2457,VALID,0,VALID,22.1728,VALID,347,VALID,0.276563,
2008-09-14, 00:50:04,VALID,1010.76,VALID,0,VALID,95.2609,VALID,0,VALID,22.1745,VALID,347,VALID,0.323438,
2008-09-14, 00:51:04,VALID,1010.74,VALID,0,VALID,95.2685,VALID,0,VALID,22.1745,VALID,32,VALID,0.457422,
2008-09-14, 00:52:04,VALID,1010.71,VALID,0,VALID,95.2914,VALID,0,VALID,22.1745,VALID,71,VALID,0.466406,
2008-09-14, 00:53:04,VALID,1010.71,VALID,0,VALID,95.3143,VALID,0,VALID,22.194,VALID,71,VALID,0.388281,
2008-09-14, 00:54:04,VALID,1010.72,VALID,0,VALID,95.3067,VALID,0,VALID,22.1728,VALID,71,VALID,0.351563,
2008-09-14, 00:55:04,VALID,1010.66,VALID,0,VALID,95.3143,VALID,0,VALID,22.155,VALID,71,VALID,0.266797,
2008-09-14, 00:56:04,VALID,1010.65,VALID,0,VALID,95.3219,VALID,0,VALID,22.1745,VALID,71,VALID,0.414063,
2008-09-14, 00:57:04,VALID,1010.65,VALID,0,VALID,95.3524,VALID,0,VALID,22.1745,VALID,71,VALID,0.104687,
2008-09-14, 00:58:04,VALID,1010.63,VALID,0,VALID,95.3677,VALID,0,VALID,22.1745,VALID,71,VALID,0.314844,
2008-09-14, 00:59:04,VALID,1010.65,VALID,0,VALID,95.3753,VALID,0,VALID,22.1745,VALID,71,VALID,0.177344,
2008-09-14, 01:00:04,VALID,1010.66,VALID,0,VALID,95.3753,VALID,0,VALID,22.194,VALID,71,VALID,0.255469,
2008-09-14, 01:01:05,VALID,1010.64,VALID,0,VALID,95.3982,VALID,0,VALID,22.194,VALID,71,VALID,0.254687,
2008-09-14, 01:02:05,VALID,1010.66,VALID,0,VALID,95.3982,VALID,0,VALID,22.1923,VALID,71,VALID,0.191797,
2008-09-14, 01:03:05,VALID,1010.64,VALID,0,VALID,95.3753,VALID,0.105969,VALID,22.1728,VALID,64,VALID,0.266406,
2008-09-14, 01:04:05,VALID,1010.63,VALID,0,VALID,95.3829,VALID,0,VALID,22.1339,VALID,64,VALID,0,
2008-09-14, 01:05:05,VALID,1010.61,VALID,0,VALID,95.3982,VALID,0.105969,VALID,22.1728,VALID,64,VALID,0.0335938,
2008-09-14, 01:06:05,VALID,1010.57,VALID,0,VALID,95.4058,VALID,0,VALID,22.1745,VALID,64,VALID,0.160547,
2008-09-14, 01:07:05,VALID,1010.56,VALID,0,VALID,95.4287,VALID,0,VALID,22.194,VALID,63,VALID,0,
2008-09-14, 01:08:05,VALID,1010.52,VALID,0,VALID,95.4363,VALID,0,VALID,22.1728,VALID,332,VALID,0.418359,
2008-09-14, 01:09:05,VALID,1010.51,VALID,0,VALID,95.4363,VALID,0,VALID,22.1745,VALID,326,VALID,0.167969,
2008-09-14, 01:10:05,VALID,1010.49,VALID,0,VALID,95.4516,VALID,0,VALID,22.194,VALID,12,VALID,0.0238281,
2008-09-14, 01:11:05,VALID,1010.48,VALID,0,VALID,95.4668,VALID,0,VALID,22.194,VALID,294,VALID,0.363672,
2008-09-14, 01:12:05,VALID,1010.46,VALID,0,VALID,95.4592,VALID,0,VALID,22.194,VALID,284,VALID,0,
2008-09-14, 01:13:05,VALID,1010.46,VALID,0,VALID,95.4821,VALID,0,VALID,22.194,VALID,284,VALID,0,
2008-09-14, 01:14:05,VALID,1010.44,VALID,0,VALID,95.4897,VALID,0,VALID,22.2134,VALID,284,VALID,0,
2008-09-14, 01:15:05,VALID,1010.44,VALID,0,VALID,95.4897,VALID,0,VALID,22.2524,VALID,284,VALID,0,
2008-09-14, 01:16:05,VALID,1010.43,VALID,0,VALID,95.4744,VALID,0,VALID,22.1923,VALID,284,VALID,0.00351562,
2008-09-14, 01:17:05,VALID,1010.46,VALID,0,VALID,95.5049,VALID,0,VALID,22.2329,VALID,284,VALID,0.0316406,
2008-09-14, 01:18:05,VALID,1010.47,VALID,0,VALID,95.5049,VALID,0,VALID,22.2134,VALID,284,VALID,0,
2008-09-14, 01:19:05,VALID,1010.44,VALID,0,VALID,95.5049,VALID,0,VALID,22.2134,VALID,284,VALID,0.0378906,
2008-09-14, 01:20:05,VALID,1010.44,VALID,0,VALID,95.5049,VALID,0,VALID,22.2134,VALID,284,VALID,0,
2008-09-14, 01:21:05,VALID,1010.43,VALID,0,VALID,95.4973,VALID,0.105969,VALID,22.2134,VALID,284,VALID,0,
2008-09-14, 01:22:05,VALID,1010.39,VALID,0,VALID,95.4973,VALID,0,VALID,22.2329,VALID,284,VALID,0.183594,
2008-09-14, 01:23:05,VALID,1010.4,VALID,0,VALID,95.5126,VALID,0,VALID,22.2329,VALID,15,VALID,0.378516,
2008-09-14, 01:24:05,VALID,1010.4,VALID,0,VALID,95.5202,VALID,0,VALID,22.2329,VALID,52,VALID,0.447656,
2008-09-14, 01:25:05,VALID,1010.37,VALID,0,VALID,95.5202,VALID,0,VALID,22.2719,VALID,72,VALID,0.613672,
2008-09-14, 01:26:05,VALID,1010.38,VALID,0,VALID,95.5507,VALID,0,VALID,22.2719,VALID,74,VALID,0.508984,
2008-09-14, 01:27:05,VALID,1010.38,VALID,0,VALID,95.5431,VALID,0.105969,VALID,22.2507,VALID,74,VALID,0.461328,
2008-09-14, 01:28:05,VALID,1010.37,VALID,0,VALID,95.5583,VALID,0,VALID,22.2914,VALID,74,VALID,0.301953,
2008-09-14, 01:29:05,VALID,1010.4,VALID,0,VALID,95.5812,VALID,0,VALID,22.3303,VALID,78,VALID,0.569141,
2008-09-14, 01:30:05,VALID,1010.37,VALID,0,VALID,95.5812,VALID,0,VALID,22.3498,VALID,101,VALID,0.8625,
2008-09-14, 01:31:05,VALID,1010.37,VALID,0,VALID,95.5659,VALID,0,VALID,22.3303,VALID,97,VALID,0.892578,
2008-09-14, 01:32:05,VALID,1010.39,VALID,0,VALID,95.5736,VALID,0,VALID,22.3498,VALID,97,VALID,0.374219,
2008-09-14, 01:33:05,VALID,1010.39,VALID,0,VALID,95.5659,VALID,0,VALID,22.3303,VALID,98,VALID,0.474219,
2008-09-14, 01:34:05,VALID,1010.41,VALID,0,VALID,95.5659,VALID,0,VALID,22.3303,VALID,103,VALID,0.435937,
2008-09-14, 01:35:05,VALID,1010.39,VALID,0,VALID,95.5812,VALID,0,VALID,22.3108,VALID,109,VALID,0.31875,
2008-09-14, 01:36:05,VALID,1010.39,VALID,0,VALID,95.5507,VALID,0,VALID,22.3481,VALID,110,VALID,0.0613281,
2008-09-14, 01:37:05,VALID,1010.43,VALID,0,VALID,95.5736,VALID,0,VALID,22.3481,VALID,173,VALID,0.603516,
2008-09-14, 01:38:05,VALID,1010.4,VALID,0,VALID,95.5659,VALID,0,VALID,22.3676,VALID,200,VALID,0.568359,
2008-09-14, 01:39:05,VALID,1010.4,VALID,0,VALID,95.5278,VALID,0,VALID,22.3091,VALID,200,VALID,0.567187,
2008-09-14, 01:40:05,VALID,1010.41,VALID,0,VALID,95.5431,VALID,0,VALID,22.3303,VALID,183,VALID,0.634375,
2008-09-14, 01:41:05,VALID,1010.43,VALID,0,VALID,95.5278,VALID,0,VALID,22.3091,VALID,178,VALID,0.304297,
2008-09-14, 01:42:05,VALID,1010.45,VALID,0,VALID,95.5431,VALID,0,VALID,22.3108,VALID,178,VALID,0.201562,
2008-09-14, 01:43:05,VALID,1010.46,VALID,0,VALID,95.5202,VALID,0,VALID,22.3303,VALID,144,VALID,0.441016,
2008-09-14, 01:44:05,VALID,1010.49,VALID,0,VALID,95.5278,VALID,0,VALID,22.3303,VALID,136,VALID,0.291406,
2008-09-14, 01:45:05,VALID,1010.48,VALID,0,VALID,95.5202,VALID,0,VALID,22.3498,VALID,136,VALID,0.347266,
2008-09-14, 01:46:05,VALID,1010.46,VALID,0,VALID,95.5431,VALID,0,VALID,22.3303,VALID,137,VALID,0.515625,
2008-09-14, 01:47:05,VALID,1010.47,VALID,0,VALID,95.5354,VALID,0,VALID,22.3303,VALID,137,VALID,0.319531,
2008-09-14, 01:48:05,VALID,1010.45,VALID,0,VALID,95.5431,VALID,0,VALID,22.3498,VALID,137,VALID,0.308203,
2008-09-14, 01:49:05,VALID,1010.43,VALID,0,VALID,95.5507,VALID,0,VALID,22.3498,VALID,137,VALID,0.212109,
2008-09-14, 01:50:05,VALID,1010.4,VALID,0,VALID,95.5659,VALID,0,VALID,22.3693,VALID,137,VALID,0.371484,
2008-09-14, 01:51:05,VALID,1010.42,VALID,0,VALID,95.5812,VALID,0.105969,VALID,22.3481,VALID,137,VALID,0.433594,
2008-09-14, 01:52:05,VALID,1010.4,VALID,0,VALID,95.5507,VALID,0,VALID,22.3676,VALID,137,VALID,0.237891,
2008-09-14, 01:53:05,VALID,1010.39,VALID,0,VALID,95.5812,VALID,0.105969,VALID,22.3676,VALID,137,VALID,0.230859,
2008-09-14, 01:54:05,VALID,1010.38,VALID,0,VALID,95.5659,VALID,0.105969,VALID,22.387,VALID,137,VALID,0.199609,
2008-09-14, 01:55:05,VALID,1010.4,VALID,0,VALID,95.5888,VALID,0.105969,VALID,22.3676,VALID,137,VALID,0.280859,
2008-09-14, 01:56:05,VALID,1010.41,VALID,0,VALID,95.5964,VALID,0.105969,VALID,22.3481,VALID,137,VALID,0.301562,
2008-09-14, 01:57:05,VALID,1010.39,VALID,0,VALID,95.5812,VALID,0.105969,VALID,22.3676,VALID,137,VALID,0.446875,
2008-09-14, 01:58:05,VALID,1010.42,VALID,0,VALID,95.5812,VALID,0.105969,VALID,22.3269,VALID,146,VALID,0.48125,
2008-09-14, 01:59:05,VALID,1010.41,VALID,0,VALID,95.6041,VALID,0.105969,VALID,22.3676,VALID,158,VALID,0.579687,
2008-09-14, 02:00:05,VALID,1010.4,VALID,0,VALID,95.6117,VALID,0.105969,VALID,22.3481,VALID,164,VALID,0.793359,
2008-09-14, 02:01:05,VALID,1010.4,VALID,0,VALID,95.6041,VALID,0.105969,VALID,22.3481,VALID,173,VALID,0.798828,
2008-09-14, 02:02:05,VALID,1010.41,VALID,0,VALID,95.6117,VALID,0.105969,VALID,22.3269,VALID,173,VALID,0.871094,
2008-09-14, 02:03:05,VALID,1010.4,VALID,0,VALID,95.6346,VALID,0.105969,VALID,22.3269,VALID,163,VALID,0.614844,
2008-09-14, 02:04:05,VALID,1010.39,VALID,0,VALID,95.6346,VALID,0.105969,VALID,22.3676,VALID,163,VALID,0.890234,
2008-09-14, 02:05:05,VALID,1010.4,VALID,0,VALID,95.6498,VALID,0.105969,VALID,22.3676,VALID,160,VALID,0.692578,
2008-09-14, 02:06:05,VALID,1010.38,VALID,0,VALID,95.6498,VALID,0.105969,VALID,22.3676,VALID,159,VALID,0.456641,
2008-09-14, 02:07:05,VALID,1010.37,VALID,0,VALID,95.6727,VALID,0.211938,VALID,22.3464,VALID,159,VALID,0.276172,
2008-09-14, 02:08:05,VALID,1010.41,VALID,0,VALID,95.6574,VALID,0.105969,VALID,22.3676,VALID,159,VALID,0,
2008-09-14, 02:09:05,VALID,1010.41,VALID,0,VALID,95.6727,VALID,0.105969,VALID,22.3659,VALID,159,VALID,0.00898437,
2008-09-14, 02:10:05,VALID,1010.42,VALID,0,VALID,95.688,VALID,0.105969,VALID,22.3659,VALID,158,VALID,0.211328,
2008-09-14, 02:11:05,VALID,1010.44,VALID,0,VALID,95.688,VALID,0,VALID,22.387,VALID,156,VALID,0.302734,
2008-09-14, 02:12:05,VALID,1010.45,VALID,0,VALID,95.688,VALID,0.105969,VALID,22.387,VALID,156,VALID,0.201562,
2008-09-14, 02:13:05,VALID,1010.48,VALID,0,VALID,95.6803,VALID,0.105969,VALID,22.3676,VALID,79,VALID,0.640234,
2008-09-14, 02:14:05,VALID,1010.46,VALID,0,VALID,95.6956,VALID,0.105969,VALID,22.387,VALID,63,VALID,0.535937,
2008-09-14, 02:15:05,VALID,1010.48,VALID,0,VALID,95.7185,VALID,0.105969,VALID,22.4065,VALID,75,VALID,0.754687,
2008-09-14, 02:16:05,VALID,1010.47,VALID,0,VALID,95.7261,VALID,0.105969,VALID,22.387,VALID,66,VALID,0.724219,
2008-09-14, 02:17:05,VALID,1010.45,VALID,0,VALID,95.7185,VALID,0.105969,VALID,22.387,VALID,76,VALID,0.848047,
2008-09-14, 02:18:05,VALID,1010.46,VALID,0,VALID,95.7108,VALID,0.105969,VALID,22.3676,VALID,92,VALID,0.698828,
2008-09-14, 02:19:05,VALID,1010.47,VALID,0,VALID,95.7413,VALID,0.105969,VALID,22.3676,VALID,84,VALID,0.847656,
2008-09-14, 02:20:05,VALID,1010.45,VALID,0,VALID,95.749,VALID,0.105969,VALID,22.3481,VALID,100,VALID,0.926172,
2008-09-14, 02:21:05,VALID,1010.51,VALID,0,VALID,95.7413,VALID,0.105969,VALID,22.3481,VALID,92,VALID,0.729688,
2008-09-14, 02:22:05,VALID,1010.51,VALID,0,VALID,95.7337,VALID,0.105969,VALID,22.3091,VALID,109,VALID,0.551562,
2008-09-14, 02:23:05,VALID,1010.54,VALID,0,VALID,95.7337,VALID,0.105969,VALID,22.3091,VALID,108,VALID,0.709375,
2008-09-14, 02:24:05,VALID,1010.57,VALID,0,VALID,95.7413,VALID,0.105969,VALID,22.3091,VALID,99,VALID,0.646484,
2008-09-14, 02:25:05,VALID,1010.57,VALID,0,VALID,95.7642,VALID,0.105969,VALID,22.3091,VALID,98,VALID,0.657812,
2008-09-14, 02:26:05,VALID,1010.54,VALID,0,VALID,95.7718,VALID,0.211938,VALID,22.2897,VALID,96,VALID,0.864844,
2008-09-14, 02:27:05,VALID,1010.54,VALID,0,VALID,95.7795,VALID,0.105969,VALID,22.2685,VALID,83,VALID,0.611328,
2008-09-14, 02:28:05,VALID,1010.56,VALID,0,VALID,95.7718,VALID,0.211938,VALID,22.288,VALID,98,VALID,0.637109,
2008-09-14, 02:29:05,VALID,1010.55,VALID,0,VALID,95.7795,VALID,0.105969,VALID,22.3286,VALID,87,VALID,0.529297,
2008-09-14, 02:30:05,VALID,1010.53,VALID,0,VALID,95.81,VALID,0.105969,VALID,22.3091,VALID,87,VALID,0.243359,
2008-09-14, 02:31:05,VALID,1010.52,VALID,0,VALID,95.7947,VALID,0.105969,VALID,22.2897,VALID,49,VALID,0.258203,
2008-09-14, 02:32:05,VALID,1010.5,VALID,0,VALID,95.81,VALID,0.211938,VALID,22.3091,VALID,49,VALID,0.0523437,
2008-09-14, 02:33:05,VALID,1010.5,VALID,0,VALID,95.81,VALID,0.105969,VALID,22.3091,VALID,122,VALID,0.449219,
2008-09-14, 02:34:05,VALID,1010.48,VALID,0,VALID,95.8176,VALID,0.105969,VALID,22.3286,VALID,168,VALID,0.873438,
2008-09-14, 02:35:05,VALID,1010.46,VALID,0,VALID,95.81,VALID,0.105969,VALID,22.3286,VALID,161,VALID,0.891016,
2008-09-14, 02:36:05,VALID,1010.49,VALID,0,VALID,95.8176,VALID,0,VALID,22.2897,VALID,139,VALID,0.904688,
2008-09-14, 02:37:05,VALID,1010.5,VALID,0,VALID,95.8176,VALID,0,VALID,22.3108,VALID,120,VALID,0.498437,
2008-09-14, 02:38:05,VALID,1010.51,VALID,0,VALID,95.8405,VALID,0,VALID,22.3108,VALID,107,VALID,0.482422,
2008-09-14, 02:39:05,VALID,1010.49,VALID,0,VALID,95.8328,VALID,0,VALID,22.3091,VALID,94,VALID,0.814453,
2008-09-14, 02:40:05,VALID,1010.51,VALID,0,VALID,95.8481,VALID,0,VALID,22.2914,VALID,94,VALID,0.380078,
2008-09-14, 02:41:05,VALID,1010.54,VALID,0,VALID,95.8557,VALID,0,VALID,22.3303,VALID,137,VALID,0.629687,
2008-09-14, 02:42:05,VALID,1010.55,VALID,0,VALID,95.8557,VALID,0,VALID,22.3091,VALID,155,VALID,0.857422,
2008-09-14, 02:43:05,VALID,1010.56,VALID,0,VALID,95.8481,VALID,0,VALID,22.3498,VALID,160,VALID,0.584375,
2008-09-14, 02:44:05,VALID,1010.54,VALID,0,VALID,95.8633,VALID,0,VALID,22.3498,VALID,137,VALID,0.767578,
2008-09-14, 02:45:05,VALID,1010.52,VALID,0,VALID,95.8481,VALID,0,VALID,22.3481,VALID,127,VALID,0.335938,
2008-09-14, 02:46:05,VALID,1010.53,VALID,0,VALID,95.8786,VALID,0,VALID,22.3693,VALID,124,VALID,0.282813,
2008-09-14, 02:47:05,VALID,1010.49,VALID,0,VALID,95.8939,VALID,0,VALID,22.3693,VALID,124,VALID,0.00117188,
2008-09-14, 02:48:05,VALID,1010.5,VALID,0,VALID,95.871,VALID,0,VALID,22.3887,VALID,124,VALID,0,
2008-09-14, 02:49:05,VALID,1010.49,VALID,0,VALID,95.8862,VALID,0,VALID,22.4277,VALID,124,VALID,0.00351562,
2008-09-14, 02:50:05,VALID,1010.46,VALID,0,VALID,95.8939,VALID,0,VALID,22.4065,VALID,122,VALID,0.2125,
2008-09-14, 02:51:05,VALID,1010.45,VALID,0,VALID,95.9091,VALID,0,VALID,22.4082,VALID,121,VALID,0.198828,
2008-09-14, 02:52:05,VALID,1010.43,VALID,0,VALID,95.9091,VALID,0,VALID,22.4667,VALID,121,VALID,0.205078,
2008-09-14, 02:53:05,VALID,1010.37,VALID,0,VALID,95.9167,VALID,0,VALID,22.4667,VALID,76,VALID,0.283594,
2008-09-14, 02:54:05,VALID,1010.36,VALID,0,VALID,95.8939,VALID,0,VALID,22.4667,VALID,17,VALID,0.510156,
2008-09-14, 02:55:05,VALID,1010.33,VALID,0,VALID,95.9015,VALID,0,VALID,22.4861,VALID,12,VALID,0.652734,
2008-09-14, 02:56:05,VALID,1010.34,VALID,0,VALID,95.9091,VALID,0,VALID,22.4667,VALID,6,VALID,0.564844,
2008-09-14, 02:57:05,VALID,1010.32,VALID,0,VALID,95.9167,VALID,0,VALID,22.4455,VALID,5,VALID,0.412109,
2008-09-14, 02:58:05,VALID,1010.29,VALID,0,VALID,95.8939,VALID,0,VALID,22.4667,VALID,14,VALID,0.546484,
2008-09-14, 02:59:05,VALID,1010.3,VALID,0,VALID,95.9167,VALID,0,VALID,22.4667,VALID,15,VALID,0.561719,
2008-09-14, 03:00:05,VALID,1010.31,VALID,0,VALID,95.9015,VALID,0,VALID,22.4472,VALID,23,VALID,0.528125,
2008-09-14, 03:01:05,VALID,1010.27,VALID,0,VALID,95.9244,VALID,0,VALID,22.4277,VALID,24,VALID,0.599219,
2008-09-14, 03:02:05,VALID,1010.28,VALID,0,VALID,95.9015,VALID,0,VALID,22.4277,VALID,37,VALID,0.671094,
2008-09-14, 03:03:05,VALID,1010.27,VALID,0,VALID,95.9244,VALID,0,VALID,22.4082,VALID,25,VALID,0.481641,
2008-09-14, 03:04:05,VALID,1010.23,VALID,0,VALID,95.9167,VALID,0,VALID,22.4277,VALID,37,VALID,0.453125,
2008-09-14, 03:05:05,VALID,1010.21,VALID,0,VALID,95.932,VALID,0,VALID,22.4082,VALID,44,VALID,0.564844,
2008-09-14, 03:06:05,VALID,1010.19,VALID,0,VALID,95.932,VALID,0,VALID,22.4065,VALID,79,VALID,0.711719,
2008-09-14, 03:07:05,VALID,1010.18,VALID,0,VALID,95.9396,VALID,0,VALID,22.4667,VALID,79,VALID,0.551953,
2008-09-14, 03:08:05,VALID,1010.17,VALID,0,VALID,95.932,VALID,0,VALID,22.5056,VALID,90,VALID,0.458984,
2008-09-14, 03:09:05,VALID,1010.18,VALID,0,VALID,95.9625,VALID,0,VALID,22.5056,VALID,110,VALID,0.866797,
2008-09-14, 03:10:05,VALID,1010.19,VALID,0,VALID,95.9549,VALID,0,VALID,22.5056,VALID,112,VALID,0.816797,
2008-09-14, 03:11:05,VALID,1010.18,VALID,0,VALID,95.9472,VALID,0,VALID,22.5056,VALID,109,VALID,0.517187,
2008-09-14, 03:12:05,VALID,1010.19,VALID,0,VALID,95.9549,VALID,0,VALID,22.4472,VALID,87,VALID,0.471484,
2008-09-14, 03:13:05,VALID,1010.2,VALID,0,VALID,95.9625,VALID,0,VALID,22.5251,VALID,141,VALID,0.409375,
2008-09-14, 03:14:05,VALID,1010.19,VALID,0,VALID,95.9625,VALID,0,VALID,22.5056,VALID,131,VALID,0.384766,
2008-09-14, 03:15:05,VALID,1010.2,VALID,0,VALID,95.9472,VALID,0,VALID,22.5251,VALID,158,VALID,0.640234,
2008-09-14, 03:16:05,VALID,1010.2,VALID,0,VALID,95.9701,VALID,0,VALID,22.5039,VALID,151,VALID,0.640234,
2008-09-14, 03:17:05,VALID,1010.22,VALID,0,VALID,95.9625,VALID,0,VALID,22.5251,VALID,168,VALID,1.03906,
2008-09-14, 03:18:05,VALID,1010.17,VALID,0,VALID,95.9472,VALID,0.105969,VALID,22.4861,VALID,166,VALID,1.1293,
2008-09-14, 03:19:05,VALID,1010.18,VALID,0,VALID,95.9625,VALID,0,VALID,22.4861,VALID,172,VALID,0.761719,
2008-09-14, 03:20:05,VALID,1010.19,VALID,0,VALID,95.9625,VALID,0,VALID,22.4667,VALID,138,VALID,1.10625,
2008-09-14, 03:21:05,VALID,1010.12,VALID,0,VALID,95.9625,VALID,0,VALID,22.4861,VALID,132,VALID,0.871094,
2008-09-14, 03:22:05,VALID,1010.11,VALID,0,VALID,95.9701,VALID,0,VALID,22.4861,VALID,120,VALID,0.883984,
2008-09-14, 03:23:05,VALID,1010.1,VALID,0,VALID,96.0006,VALID,0,VALID,22.5056,VALID,131,VALID,0.497266,
2008-09-14, 03:24:05,VALID,1010.08,VALID,0,VALID,95.9777,VALID,0,VALID,22.5251,VALID,134,VALID,0.5625,
2008-09-14, 03:25:05,VALID,1010.05,VALID,0,VALID,95.9854,VALID,0,VALID,22.4861,VALID,169,VALID,0.860156,
2008-09-14, 03:26:05,VALID,1010.07,VALID,0,VALID,95.9777,VALID,0,VALID,22.4878,VALID,139,VALID,0.639453,
2008-09-14, 03:27:05,VALID,1010.11,VALID,0,VALID,95.9854,VALID,0,VALID,22.4667,VALID,163,VALID,0.555078,
2008-09-14, 03:28:05,VALID,1010.09,VALID,0,VALID,95.9854,VALID,0,VALID,22.4667,VALID,133,VALID,0.352734,
2008-09-14, 03:29:05,VALID,1010.09,VALID,0,VALID,95.9854,VALID,0,VALID,22.4861,VALID,133,VALID,0.312109,
2008-09-14, 03:30:05,VALID,1010.07,VALID,0,VALID,95.993,VALID,0,VALID,22.4861,VALID,120,VALID,0.537891,
2008-09-14, 03:31:05,VALID,1010.07,VALID,0,VALID,95.9777,VALID,0,VALID,22.4667,VALID,120,VALID,0.275,
2008-09-14, 03:32:05,VALID,1010.07,VALID,0,VALID,95.9854,VALID,0,VALID,22.4861,VALID,150,VALID,0.833203,
2008-09-14, 03:33:05,VALID,1010.05,VALID,0,VALID,96.0082,VALID,0,VALID,22.4667,VALID,125,VALID,0.453906,
2008-09-14, 03:34:05,VALID,1010.08,VALID,0,VALID,96.0082,VALID,0,VALID,22.5056,VALID,125,VALID,0.574219,
2008-09-14, 03:35:05,VALID,1010.05,VALID,0,VALID,96.0082,VALID,0,VALID,22.5056,VALID,125,VALID,0.484766,
2008-09-14, 03:36:05,VALID,1010.05,VALID,0,VALID,96.0082,VALID,0,VALID,22.5039,VALID,125,VALID,0.423047,
2008-09-14, 03:37:05,VALID,1010.08,VALID,0,VALID,96.0235,VALID,0.105969,VALID,22.5251,VALID,125,VALID,0.376953,
2008-09-14, 03:38:05,VALID,1010.06,VALID,0,VALID,96.0082,VALID,0,VALID,22.5251,VALID,121,VALID,0.607031,
2008-09-14, 03:39:05,VALID,1010.1,VALID,0,VALID,96.0159,VALID,0,VALID,22.5251,VALID,127,VALID,0.786719,
2008-09-14, 03:40:05,VALID,1010.09,VALID,0,VALID,96.0082,VALID,0,VALID,22.4861,VALID,135,VALID,0.870313,
2008-09-14, 03:41:05,VALID,1010.09,VALID,0,VALID,96.0159,VALID,0,VALID,22.4667,VALID,130,VALID,0.846094,
2008-09-14, 03:42:05,VALID,1010.09,VALID,0,VALID,96.0082,VALID,0,VALID,22.5056,VALID,143,VALID,0.659375,